Time,TemperatureF,DewpointF,PressureIn,WindDirection,WindDirectionDegrees,WindSpeedMPH,WindSpeedGustMPH,Humidity,HourlyPrecipIn,Conditions,Clouds,dailyrainin,SoftwareType,DateUTC
2013-01-01 00:02:00,51.9,45.3,30.05,South,187,2.0,2.0,78,0.00,,SKC,0.00,VWS V14.01,2013-01-01 06:02:00,
2013-01-01 00:07:00,52.0,45.7,30.05,South,182,2.0,7.0,79,0.00,,SKC,0.00,VWS V14.01,2013-01-01 06:07:00,
2013-01-01 00:12:00,52.1,45.8,30.04,South,173,0.0,0.0,79,0.00,,SKC,0.00,VWS V14.01,2013-01-01 06:12:00,
2013-01-01 00:17:00,52.1,46.1,30.04,SSW,198,4.0,6.0,80,0.00,,SKC,0.00,VWS V14.01,2013-01-01 06:17:00,
2013-01-01 00:22:00,52.1,46.1,30.04,SSW,196,2.0,4.0,80,0.00,,SKC,0.00,VWS V14.01,2013-01-01 06:22:00,
2013-01-01 00:27:00,52.1,46.1,30.03,SSW,199,8.0,8.0,80,0.00,,SKC,0.00,VWS V14.01,2013-01-01 06:27:00,
2013-01-01 00:32:00,52.1,46.1,30.03,SW,215,8.0,8.0,80,0.00,,SKC,0.00,VWS V14.01,2013-01-01 06:32:00,
2013-01-01 00:37:00,52.1,46.5,30.02,ESE,117,0.0,3.0,81,0.00,,SKC,0.00,VWS V14.01,2013-01-01 06:37:00,
2013-01-01 00:42:00,52.1,46.5,30.02,South,187,7.0,7.0,81,0.00,,SKC,0.00,VWS V14.01,2013-01-01 06:42:00,
2013-01-01 00:47:00,52.3,46.7,30.02,South,183,1.0,3.0,81,0.00,,SKC,0.00,VWS V14.01,2013-01-01 06:47:00,
2013-01-01 00:52:00,52.3,46.7,30.01,South,172,2.0,4.0,81,0.00,,SKC,0.00,VWS V14.01,2013-01-01 06:52:00,
2013-01-01 00:57:00,52.4,46.8,30.02,SE,136,1.0,7.0,81,0.00,,SKC,0.00,VWS V14.01,2013-01-01 06:57:00,
2013-01-01 01:02:00,52.4,46.8,30.02,SSW,195,3.0,3.0,81,0.00,,SKC,0.00,VWS V14.01,2013-01-01 07:02:00,
2013-01-01 01:07:00,52.5,46.8,30.02,South,174,0.0,2.0,81,0.00,,SKC,0.00,VWS V14.01,2013-01-01 07:07:00,
2013-01-01 01:12:00,52.5,46.8,30.02,SSW,197,3.0,7.0,81,0.00,,SKC,0.00,VWS V14.01,2013-01-01 07:12:00,
2013-01-01 01:17:00,52.5,47.2,30.01,South,190,3.0,12.0,82,0.00,,SKC,0.00,VWS V14.01,2013-01-01 07:17:00,
2013-01-01 01:22:00,52.6,46.9,30.01,SSW,197,2.0,4.0,81,0.00,,SKC,0.00,VWS V14.01,2013-01-01 07:22:00,
2013-01-01 01:27:00,52.6,47.3,30.01,SW,215,2.0,3.0,82,0.00,,SKC,0.00,VWS V14.01,2013-01-01 07:27:00,
2013-01-01 01:32:00,52.7,47.4,30.01,WSW,240,4.0,5.0,82,0.00,,SKC,0.00,VWS V14.01,2013-01-01 07:32:00,
2013-01-01 01:37:00,52.8,47.5,30.01,South,188,4.0,5.0,82,0.00,,SKC,0.00,VWS V14.01,2013-01-01 07:37:00,
2013-01-01 01:42:00,53.0,47.7,30.00,SSW,197,0.0,1.0,82,0.00,,SKC,0.00,VWS V14.01,2013-01-01 07:42:00,
2013-01-01 01:47:00,53.2,48.2,30.00,SSW,194,5.0,6.0,83,0.00,,SKC,0.00,VWS V14.01,2013-01-01 07:47:00,
2013-01-01 01:52:00,53.3,48.0,30.00,SSW,195,3.0,3.0,82,0.00,,SKC,0.00,VWS V14.01,2013-01-01 07:52:00,
2013-01-01 01:57:00,53.5,48.5,30.00,South,183,1.0,9.0,83,0.00,,SKC,0.00,VWS V14.01,2013-01-01 07:57:00,
2013-01-01 02:02:00,53.6,48.6,30.00,South,187,0.0,6.0,83,0.00,,SKC,0.00,VWS V14.01,2013-01-01 08:02:00,
2013-01-01 02:07:00,53.6,48.6,30.00,SSW,211,4.0,6.0,83,0.00,,SKC,0.00,VWS V14.01,2013-01-01 08:07:00,
2013-01-01 02:12:00,53.6,48.6,29.99,South,182,2.0,7.0,83,0.00,,SKC,0.00,VWS V14.01,2013-01-01 08:12:00,
2013-01-01 02:17:00,53.6,48.6,29.99,South,178,2.0,9.0,83,0.00,,SKC,0.00,VWS V14.01,2013-01-01 08:17:00,
2013-01-01 02:22:00,53.6,48.6,29.99,SSE,162,0.0,2.0,83,0.00,,SKC,0.00,VWS V14.01,2013-01-01 08:22:00,
2013-01-01 02:27:00,53.6,48.9,29.98,SSE,149,1.0,2.0,84,0.00,,SKC,0.00,VWS V14.01,2013-01-01 08:27:00,
2013-01-01 02:32:00,53.5,48.8,29.98,SSW,209,0.0,0.0,84,0.00,,SKC,0.00,VWS V14.01,2013-01-01 08:32:00,
2013-01-01 02:36:00,53.6,49.2,29.99,WSW,242,0.0,0.0,85,0.00,,SKC,0.00,VWS V14.01,2013-01-01 08:36:00,
2013-01-01 02:41:00,53.7,49.3,29.99,SW,214,0.0,6.0,85,0.00,,SKC,0.00,VWS V14.01,2013-01-01 08:41:00,
2013-01-01 02:46:00,53.7,49.3,29.99,South,186,2.0,6.0,85,0.00,,SKC,0.00,VWS V14.01,2013-01-01 08:46:00,
2013-01-01 02:51:00,53.7,49.3,29.99,SSW,192,4.0,6.0,85,0.00,,SKC,0.00,VWS V14.01,2013-01-01 08:51:00,
2013-01-01 02:56:00,53.7,49.3,29.99,South,190,0.0,3.0,85,0.00,,SKC,0.00,VWS V14.01,2013-01-01 08:56:00,
2013-01-01 03:01:00,53.7,49.3,29.99,SSW,201,1.0,2.0,85,0.00,,SKC,0.00,VWS V14.01,2013-01-01 09:01:00,
2013-01-01 03:06:00,53.7,49.3,29.99,SSW,195,2.0,3.0,85,0.00,,SKC,0.00,VWS V14.01,2013-01-01 09:06:00,
2013-01-01 03:11:00,53.6,49.2,29.99,SSE,153,0.0,1.0,85,0.00,,SKC,0.00,VWS V14.01,2013-01-01 09:11:00,
2013-01-01 03:16:00,53.6,49.5,29.98,South,191,4.0,4.0,86,0.00,,SKC,0.00,VWS V14.01,2013-01-01 09:16:00,
2013-01-01 03:21:00,53.6,49.5,29.98,South,188,4.0,5.0,86,0.00,,SKC,0.00,VWS V14.01,2013-01-01 09:21:00,
2013-01-01 03:26:00,53.7,49.6,29.98,South,184,2.0,4.0,86,0.00,,SKC,0.00,VWS V14.01,2013-01-01 09:26:00,
2013-01-01 03:31:00,53.7,49.6,29.98,South,183,4.0,4.0,86,0.00,,SKC,0.00,VWS V14.01,2013-01-01 09:31:00,
2013-01-01 03:36:00,53.7,49.6,29.98,South,184,0.0,0.0,86,0.00,,SKC,0.00,VWS V14.01,2013-01-01 09:36:00,
2013-01-01 03:41:00,53.7,49.6,29.98,South,191,3.0,5.0,86,0.00,,SKC,0.00,VWS V14.01,2013-01-01 09:41:00,
2013-01-01 03:46:00,53.8,49.7,29.98,SSW,211,0.0,1.0,86,0.00,,SKC,0.00,VWS V14.01,2013-01-01 09:46:00,
2013-01-01 03:51:00,53.8,50.0,29.98,South,184,3.0,4.0,87,0.00,,SKC,0.00,VWS V14.01,2013-01-01 09:51:00,
2013-01-01 03:56:00,53.8,50.0,29.98,SSW,200,0.0,0.0,87,0.00,,SKC,0.00,VWS V14.01,2013-01-01 09:56:00,
2013-01-01 04:01:00,53.8,50.0,29.98,SSW,212,3.0,3.0,87,0.00,,SKC,0.00,VWS V14.01,2013-01-01 10:01:00,
2013-01-01 04:06:00,53.8,50.0,29.98,South,180,0.0,1.0,87,0.00,,SKC,0.00,VWS V14.01,2013-01-01 10:06:00,
2013-01-01 04:11:00,53.8,50.0,29.98,SSW,204,4.0,4.0,87,0.00,,SKC,0.00,VWS V14.01,2013-01-01 10:11:00,
2013-01-01 04:16:00,53.8,50.3,29.98,South,180,4.0,5.0,88,0.00,,SKC,0.00,VWS V14.01,2013-01-01 10:16:00,
2013-01-01 04:21:00,53.7,50.2,29.97,South,178,0.0,3.0,88,0.00,,SKC,0.00,VWS V14.01,2013-01-01 10:21:00,
2013-01-01 04:26:00,53.7,50.2,29.97,South,182,0.0,1.0,88,0.00,,SKC,0.00,VWS V14.01,2013-01-01 10:26:00,
2013-01-01 04:32:00,53.7,50.2,29.97,SSW,192,2.0,3.0,88,0.00,,SKC,0.00,VWS V14.01,2013-01-01 10:32:00,
2013-01-01 04:37:00,53.7,50.2,29.97,SSE,150,0.0,4.0,88,0.00,,SKC,0.00,VWS V14.01,2013-01-01 10:37:00,
2013-01-01 04:42:00,53.7,50.5,29.97,South,191,4.0,4.0,89,0.00,,SKC,0.00,VWS V14.01,2013-01-01 10:42:00,
2013-01-01 04:47:00,53.8,50.6,29.97,SSW,197,3.0,4.0,89,0.00,,SKC,0.00,VWS V14.01,2013-01-01 10:47:00,
2013-01-01 04:52:00,53.9,50.7,29.97,South,188,0.0,3.0,89,0.00,,SKC,0.00,VWS V14.01,2013-01-01 10:52:00,
2013-01-01 04:57:00,53.9,50.7,29.97,South,188,0.0,1.0,89,0.00,,SKC,0.00,VWS V14.01,2013-01-01 10:57:00,
2013-01-01 05:02:00,53.9,50.7,29.97,South,188,0.0,2.0,89,0.00,,SKC,0.00,VWS V14.01,2013-01-01 11:02:00,
2013-01-01 05:07:00,53.9,51.0,29.97,South,187,2.0,4.0,90,0.00,,SKC,0.00,VWS V14.01,2013-01-01 11:07:00,
2013-01-01 05:12:00,53.9,51.0,29.97,South,188,0.0,1.0,90,0.00,,SKC,0.00,VWS V14.01,2013-01-01 11:12:00,
2013-01-01 05:17:00,53.9,51.0,29.98,South,188,0.0,0.0,90,0.00,,SKC,0.00,VWS V14.01,2013-01-01 11:17:00,
2013-01-01 05:22:00,53.8,50.9,29.99,West,281,3.0,3.0,90,0.00,,SKC,0.00,VWS V14.01,2013-01-01 11:22:00,
2013-01-01 05:27:00,53.6,51.0,29.99,West,280,0.0,0.0,91,0.02,,SKC,0.02,VWS V14.01,2013-01-01 11:27:00,
2013-01-01 05:32:00,53.3,50.7,30.00,West,280,0.0,2.0,91,0.04,,SKC,0.04,VWS V14.01,2013-01-01 11:32:00,
2013-01-01 05:37:00,53.0,50.7,30.00,West,277,0.0,0.0,92,0.08,,SKC,0.08,VWS V14.01,2013-01-01 11:37:00,
2013-01-01 05:42:00,52.7,50.5,30.00,West,277,0.0,0.0,92,0.10,,SKC,0.10,VWS V14.01,2013-01-01 11:42:00,
2013-01-01 05:47:00,52.5,50.5,30.01,West,275,0.0,0.0,93,0.12,,SKC,0.12,VWS V14.01,2013-01-01 11:47:00,
2013-01-01 05:52:00,52.3,50.3,30.01,West,275,1.0,1.0,93,0.14,,SKC,0.14,VWS V14.01,2013-01-01 11:52:00,
2013-01-01 05:57:00,52.2,50.2,30.01,West,264,0.0,1.0,93,0.15,,SKC,0.15,VWS V14.01,2013-01-01 11:57:00,
2013-01-01 06:02:00,52.1,50.1,30.01,NW,310,1.0,2.0,93,0.16,,SKC,0.16,VWS V14.01,2013-01-01 12:02:00,
2013-01-01 06:07:00,52.0,50.0,30.02,WNW,295,0.0,0.0,93,0.18,,SKC,0.18,VWS V14.01,2013-01-01 12:07:00,
2013-01-01 06:12:00,51.9,50.2,30.02,WNW,297,0.0,0.0,94,0.18,,SKC,0.18,VWS V14.01,2013-01-01 12:12:00,
2013-01-01 06:17:00,51.8,50.1,30.02,NW,304,1.0,2.0,94,0.19,,SKC,0.19,VWS V14.01,2013-01-01 12:17:00,
2013-01-01 06:22:00,51.7,50.0,30.02,NW,307,0.0,1.0,94,0.20,,SKC,0.20,VWS V14.01,2013-01-01 12:22:00,
2013-01-01 06:27:00,51.7,50.0,30.02,NE,55,0.0,1.0,94,0.19,,SKC,0.21,VWS V14.01,2013-01-01 12:27:00,
2013-01-01 06:32:00,51.5,49.8,30.02,NE,54,0.0,0.0,94,0.18,,SKC,0.22,VWS V14.01,2013-01-01 12:32:00,
2013-01-01 06:38:00,51.5,49.8,30.02,NE,55,0.0,0.0,94,0.15,,SKC,0.23,VWS V14.01,2013-01-01 12:38:00,
2013-01-01 06:43:00,51.4,49.7,30.02,NE,56,0.0,1.0,94,0.15,,SKC,0.24,VWS V14.01,2013-01-01 12:43:00,
2013-01-01 06:48:00,51.4,49.7,30.02,NE,56,0.0,2.0,94,0.13,,SKC,0.25,VWS V14.01,2013-01-01 12:48:00,
2013-01-01 06:53:00,51.3,49.6,30.01,ENE,57,1.0,2.0,94,0.12,,SKC,0.26,VWS V14.01,2013-01-01 12:53:00,
2013-01-01 06:58:00,51.2,49.5,30.01,ENE,57,0.0,0.0,94,0.11,,SKC,0.26,VWS V14.01,2013-01-01 12:58:00,
2013-01-01 07:03:00,51.2,49.5,30.01,ENE,59,0.0,0.0,94,0.11,,SKC,0.27,VWS V14.01,2013-01-01 13:03:00,
2013-01-01 07:08:00,51.1,49.4,30.01,ENE,59,2.0,2.0,94,0.10,,SKC,0.27,VWS V14.01,2013-01-01 13:08:00,
2013-01-01 07:13:00,51.1,49.4,30.01,ENE,59,0.0,0.0,94,0.10,,SKC,0.28,VWS V14.01,2013-01-01 13:13:00,
2013-01-01 07:18:00,51.1,49.4,30.01,ENE,59,0.0,0.0,94,0.09,,SKC,0.28,VWS V14.01,2013-01-01 13:18:00,
2013-01-01 07:23:00,51.0,49.3,30.01,ENE,59,0.0,0.0,94,0.08,,SKC,0.28,VWS V14.01,2013-01-01 13:23:00,
2013-01-01 07:28:00,51.1,49.7,30.02,ENE,59,0.0,0.0,95,0.08,,SKC,0.29,VWS V14.01,2013-01-01 13:28:00,
2013-01-01 07:33:00,51.1,49.7,30.01,ENE,59,0.0,0.0,95,0.09,,SKC,0.31,VWS V14.01,2013-01-01 13:33:00,
2013-01-01 07:38:00,51.1,49.7,30.01,ENE,59,0.0,0.0,95,0.10,,SKC,0.33,VWS V14.01,2013-01-01 13:38:00,
2013-01-01 07:43:00,51.0,49.6,30.01,ENE,59,0.0,0.0,95,0.12,,SKC,0.36,VWS V14.01,2013-01-01 13:43:00,
2013-01-01 07:48:00,51.0,49.6,30.01,ENE,59,0.0,0.0,95,0.13,,SKC,0.37,VWS V14.01,2013-01-01 13:48:00,
2013-01-01 07:53:00,51.0,49.6,30.01,ENE,59,0.0,0.0,95,0.12,,SKC,0.38,VWS V14.01,2013-01-01 13:53:00,
2013-01-01 07:58:00,51.0,49.6,30.01,ENE,59,0.0,1.0,95,0.14,,SKC,0.40,VWS V14.01,2013-01-01 13:58:00,
2013-01-01 08:03:00,51.0,49.6,30.01,ENE,59,0.0,0.0,95,0.14,,SKC,0.41,VWS V14.01,2013-01-01 14:03:00,
2013-01-01 08:08:00,51.0,49.6,30.01,ENE,59,0.0,0.0,95,0.15,,SKC,0.42,VWS V14.01,2013-01-01 14:08:00,
2013-01-01 08:13:00,51.1,49.7,30.01,ENE,59,0.0,0.0,95,0.15,,SKC,0.43,VWS V14.01,2013-01-01 14:13:00,
2013-01-01 08:18:00,51.2,49.8,30.01,ENE,59,0.0,0.0,95,0.15,,SKC,0.43,VWS V14.01,2013-01-01 14:18:00,
2013-01-01 08:23:00,51.2,49.8,30.01,ENE,59,0.0,0.0,95,0.18,,SKC,0.46,VWS V14.01,2013-01-01 14:23:00,
2013-01-01 08:28:00,51.3,49.9,30.02,ENE,59,0.0,0.0,95,0.18,,SKC,0.47,VWS V14.01,2013-01-01 14:28:00,
2013-01-01 08:33:00,51.4,50.0,30.01,ENE,59,1.0,1.0,95,0.20,,SKC,0.50,VWS V14.01,2013-01-01 14:33:00,
2013-01-01 08:38:00,51.4,50.0,30.00,ENE,59,0.0,1.0,95,0.21,,SKC,0.53,VWS V14.01,2013-01-01 14:38:00,
2013-01-01 08:43:00,51.5,50.1,30.00,ENE,59,0.0,0.0,95,0.18,,SKC,0.54,VWS V14.01,2013-01-01 14:43:00,
2013-01-01 08:48:00,51.5,50.1,30.01,ENE,59,0.0,0.0,95,0.19,,SKC,0.56,VWS V14.01,2013-01-01 14:48:00,
2013-01-01 08:53:00,51.6,50.5,30.01,ENE,59,0.0,1.0,96,0.21,,SKC,0.58,VWS V14.01,2013-01-01 14:53:00,
2013-01-01 08:58:00,51.7,50.6,30.01,ENE,59,0.0,0.0,96,0.21,,SKC,0.60,VWS V14.01,2013-01-01 14:58:00,
2013-01-01 09:03:00,51.8,50.7,30.01,ENE,59,0.0,0.0,96,0.21,,SKC,0.62,VWS V14.01,2013-01-01 15:03:00,
2013-01-01 09:08:00,51.8,50.7,30.01,ENE,59,0.0,0.0,96,0.22,,SKC,0.64,VWS V14.01,2013-01-01 15:08:00,
2013-01-01 09:13:00,51.8,50.7,30.01,ENE,59,0.0,0.0,96,0.23,,SKC,0.66,VWS V14.01,2013-01-01 15:13:00,
2013-01-01 09:18:00,51.9,50.5,30.01,ENE,59,0.0,0.0,95,0.25,,SKC,0.68,VWS V14.01,2013-01-01 15:18:00,
2013-01-01 09:23:00,51.9,50.5,30.01,ENE,59,0.0,0.0,95,0.25,,SKC,0.70,VWS V14.01,2013-01-01 15:23:00,
2013-01-01 09:28:00,51.9,50.5,30.01,ENE,59,0.0,0.0,95,0.23,,SKC,0.70,VWS V14.01,2013-01-01 15:28:00,
2013-01-01 09:33:00,52.0,50.6,30.00,ENE,59,0.0,0.0,95,0.22,,SKC,0.71,VWS V14.01,2013-01-01 15:33:00,
2013-01-01 09:38:00,52.2,51.1,30.01,NE,55,0.0,0.0,96,0.20,,SKC,0.72,VWS V14.01,2013-01-01 15:38:00,
2013-01-01 09:43:00,52.3,51.2,30.00,NE,55,0.0,0.0,96,0.18,,SKC,0.72,VWS V14.01,2013-01-01 15:43:00,
2013-01-01 09:48:00,52.5,51.4,30.00,NE,55,0.0,0.0,96,0.17,,SKC,0.72,VWS V14.01,2013-01-01 15:48:00,
2013-01-01 09:53:00,52.7,51.6,30.00,NE,55,0.0,0.0,96,0.14,,SKC,0.72,VWS V14.01,2013-01-01 15:53:00,
2013-01-01 09:58:00,52.8,51.7,30.00,NE,55,0.0,0.0,96,0.14,,SKC,0.73,VWS V14.01,2013-01-01 15:58:00,
2013-01-01 10:03:00,52.8,51.7,30.00,NE,55,0.0,0.0,96,0.12,,SKC,0.74,VWS V14.01,2013-01-01 16:03:00,
2013-01-01 10:08:00,52.9,51.8,30.00,NE,55,0.0,0.0,96,0.11,,SKC,0.75,VWS V14.01,2013-01-01 16:08:00,
2013-01-01 10:13:00,53.0,51.9,30.00,NE,55,0.0,0.0,96,0.10,,SKC,0.76,VWS V14.01,2013-01-01 16:13:00,
2013-01-01 10:18:00,53.0,51.9,30.00,NE,55,0.0,0.0,96,0.08,,SKC,0.76,VWS V14.01,2013-01-01 16:18:00,
2013-01-01 10:23:00,53.1,52.0,30.00,NE,55,0.0,1.0,96,0.08,,SKC,0.77,VWS V14.01,2013-01-01 16:23:00,
2013-01-01 10:28:00,53.2,52.1,30.00,NE,55,0.0,0.0,96,0.08,,SKC,0.78,VWS V14.01,2013-01-01 16:28:00,
2013-01-01 10:33:00,53.1,52.0,30.00,NE,55,0.0,0.0,96,0.08,,SKC,0.79,VWS V14.01,2013-01-01 16:33:00,
2013-01-01 10:38:00,53.1,52.0,30.00,NE,55,0.0,0.0,96,0.09,,SKC,0.80,VWS V14.01,2013-01-01 16:38:00,
2013-01-01 10:43:00,53.2,52.1,30.00,NE,55,0.0,0.0,96,0.09,,SKC,0.81,VWS V14.01,2013-01-01 16:43:00,
2013-01-01 10:48:00,53.2,52.1,30.00,NE,55,0.0,0.0,96,0.10,,SKC,0.82,VWS V14.01,2013-01-01 16:48:00,
2013-01-01 10:53:00,53.2,52.1,30.00,NE,55,0.0,0.0,96,0.11,,SKC,0.83,VWS V14.01,2013-01-01 16:53:00,
2013-01-01 10:57:00,53.2,52.1,30.00,NE,55,0.0,0.0,96,0.11,,SKC,0.84,VWS V14.01,2013-01-01 16:57:00,
2013-01-01 11:02:00,53.3,52.2,30.00,NE,55,0.0,0.0,96,0.11,,SKC,0.85,VWS V14.01,2013-01-01 17:02:00,
2013-01-01 11:07:00,53.3,52.2,30.00,NE,55,0.0,0.0,96,0.11,,SKC,0.86,VWS V14.01,2013-01-01 17:07:00,
2013-01-01 11:12:00,53.3,52.2,29.99,NE,55,0.0,0.0,96,0.12,,SKC,0.88,VWS V14.01,2013-01-01 17:12:00,
2013-01-01 11:17:00,53.4,52.3,29.99,NE,55,0.0,0.0,96,0.13,,SKC,0.89,VWS V14.01,2013-01-01 17:17:00,
2013-01-01 11:22:00,53.5,52.4,29.99,NE,55,0.0,0.0,96,0.13,,SKC,0.90,VWS V14.01,2013-01-01 17:22:00,
2013-01-01 11:27:00,53.5,52.4,29.98,NE,55,0.0,0.0,96,0.12,,SKC,0.90,VWS V14.01,2013-01-01 17:27:00,
2013-01-01 11:32:00,53.5,52.4,29.98,NE,55,0.0,0.0,96,0.12,,SKC,0.90,VWS V14.01,2013-01-01 17:32:00,
2013-01-01 11:37:00,53.6,52.5,29.98,NE,55,0.0,0.0,96,0.11,,SKC,0.91,VWS V14.01,2013-01-01 17:37:00,
2013-01-01 11:42:00,53.6,52.5,29.97,NE,55,0.0,0.0,96,0.10,,SKC,0.91,VWS V14.01,2013-01-01 17:42:00,
2013-01-01 11:47:00,53.6,52.5,29.97,NE,55,0.0,0.0,96,0.10,,SKC,0.92,VWS V14.01,2013-01-01 17:47:00,
2013-01-01 11:52:00,53.5,52.4,29.97,NE,55,0.0,0.0,96,0.11,,SKC,0.94,VWS V14.01,2013-01-01 17:52:00,
2013-01-01 11:57:00,53.5,52.4,29.97,NE,55,0.0,0.0,96,0.11,,SKC,0.95,VWS V14.01,2013-01-01 17:57:00,
2013-01-01 12:02:00,53.5,52.4,29.96,NE,55,0.0,0.0,96,0.11,,SKC,0.96,VWS V14.01,2013-01-01 18:02:00,
2013-01-01 12:07:00,53.6,52.5,29.95,NE,55,0.0,0.0,96,0.10,,SKC,0.96,VWS V14.01,2013-01-01 18:07:00,
2013-01-01 12:12:00,53.8,52.7,29.95,NE,55,0.0,0.0,96,0.09,,SKC,0.97,VWS V14.01,2013-01-01 18:12:00,
2013-01-01 12:17:00,53.9,52.8,29.95,NE,55,0.0,0.0,96,0.09,,SKC,0.98,VWS V14.01,2013-01-01 18:17:00,
2013-01-01 12:22:00,53.8,52.7,29.95,NE,55,0.0,0.0,96,0.09,,SKC,0.99,VWS V14.01,2013-01-01 18:22:00,
2013-01-01 12:27:00,53.8,52.7,29.95,NE,55,0.0,0.0,96,0.10,,SKC,1.00,VWS V14.01,2013-01-01 18:27:00,
2013-01-01 12:32:00,53.8,52.7,29.95,NE,55,0.0,0.0,96,0.11,,SKC,1.01,VWS V14.01,2013-01-01 18:32:00,
2013-01-01 12:37:00,53.9,52.8,29.94,NE,55,0.0,0.0,96,0.11,,SKC,1.02,VWS V14.01,2013-01-01 18:37:00,
2013-01-01 12:42:00,54.1,53.0,29.94,NE,55,0.0,0.0,96,0.11,,SKC,1.02,VWS V14.01,2013-01-01 18:42:00,
2013-01-01 12:47:00,54.1,53.0,29.94,NE,55,0.0,0.0,96,0.11,,SKC,1.03,VWS V14.01,2013-01-01 18:47:00,
2013-01-01 12:52:00,54.2,53.1,29.93,NE,55,0.0,0.0,96,0.09,,SKC,1.03,VWS V14.01,2013-01-01 18:52:00,
2013-01-01 12:57:00,54.2,53.1,29.93,NE,55,0.0,0.0,96,0.09,,SKC,1.04,VWS V14.01,2013-01-01 18:57:00,
2013-01-01 13:02:00,54.2,53.1,29.93,NE,55,0.0,0.0,96,0.10,,SKC,1.06,VWS V14.01,2013-01-01 19:02:00,
2013-01-01 13:07:00,54.1,53.0,29.93,NE,55,0.0,0.0,96,0.11,,SKC,1.07,VWS V14.01,2013-01-01 19:07:00,
2013-01-01 13:12:00,54.1,53.0,29.93,NE,55,0.0,0.0,96,0.10,,SKC,1.07,VWS V14.01,2013-01-01 19:12:00,
2013-01-01 13:17:00,54.2,53.1,29.93,NE,55,0.0,0.0,96,0.10,,SKC,1.08,VWS V14.01,2013-01-01 19:17:00,
2013-01-01 13:22:00,54.2,53.1,29.93,NE,55,0.0,0.0,96,0.09,,SKC,1.08,VWS V14.01,2013-01-01 19:22:00,
2013-01-01 13:27:00,54.2,53.1,29.92,NE,55,0.0,0.0,96,0.08,,SKC,1.08,VWS V14.01,2013-01-01 19:27:00,
2013-01-01 13:32:00,54.2,53.1,29.92,NE,55,0.0,0.0,96,0.08,,SKC,1.09,VWS V14.01,2013-01-01 19:32:00,
2013-01-01 13:37:00,54.2,53.1,29.91,NE,55,0.0,0.0,96,0.07,,SKC,1.09,VWS V14.01,2013-01-01 19:37:00,
2013-01-01 13:42:00,54.2,53.1,29.91,NE,55,0.0,1.0,96,0.08,,SKC,1.10,VWS V14.01,2013-01-01 19:42:00,
2013-01-01 13:47:00,54.2,53.1,29.91,NE,55,0.0,0.0,96,0.07,,SKC,1.10,VWS V14.01,2013-01-01 19:47:00,
2013-01-01 13:52:00,54.2,53.1,29.91,NE,55,0.0,0.0,96,0.08,,SKC,1.11,VWS V14.01,2013-01-01 19:52:00,
2013-01-01 13:57:00,54.2,53.1,29.91,NE,55,0.0,0.0,96,0.07,,SKC,1.11,VWS V14.01,2013-01-01 19:57:00,
2013-01-01 14:02:00,54.1,53.0,29.91,NE,55,0.0,0.0,96,0.05,,SKC,1.11,VWS V14.01,2013-01-01 20:02:00,
2013-01-01 14:07:00,54.1,53.0,29.91,NE,55,0.0,0.0,96,0.04,,SKC,1.11,VWS V14.01,2013-01-01 20:07:00,
2013-01-01 14:12:00,54.1,53.0,29.91,NE,55,0.0,0.0,96,0.04,,SKC,1.11,VWS V14.01,2013-01-01 20:12:00,
2013-01-01 14:17:00,54.1,53.0,29.91,NE,55,0.0,0.0,96,0.03,,SKC,1.11,VWS V14.01,2013-01-01 20:17:00,
2013-01-01 14:22:00,54.2,53.1,29.91,NE,55,0.0,0.0,96,0.03,,SKC,1.11,VWS V14.01,2013-01-01 20:22:00,
2013-01-01 14:27:00,54.2,53.1,29.91,NE,55,0.0,0.0,96,0.04,,SKC,1.12,VWS V14.01,2013-01-01 20:27:00,
2013-01-01 14:32:00,54.3,53.2,29.91,NE,55,0.0,0.0,96,0.03,,SKC,1.12,VWS V14.01,2013-01-01 20:32:00,
2013-01-01 14:37:00,54.4,53.3,29.91,NE,55,0.0,0.0,96,0.03,,SKC,1.12,VWS V14.01,2013-01-01 20:37:00,
2013-01-01 14:42:00,54.4,53.3,29.90,NE,55,0.0,0.0,96,0.04,,SKC,1.13,VWS V14.01,2013-01-01 20:42:00,
2013-01-01 14:47:00,54.4,53.3,29.90,NE,55,0.0,0.0,96,0.03,,SKC,1.13,VWS V14.01,2013-01-01 20:47:00,
2013-01-01 14:52:00,54.4,53.3,29.90,NE,55,1.0,1.0,96,0.03,,SKC,1.14,VWS V14.01,2013-01-01 20:52:00,
2013-01-01 14:57:00,54.3,53.2,29.90,NE,55,0.0,0.0,96,0.03,,SKC,1.14,VWS V14.01,2013-01-01 20:57:00,
2013-01-01 15:02:00,54.4,53.3,29.90,NE,55,0.0,0.0,96,0.04,,SKC,1.15,VWS V14.01,2013-01-01 21:02:00,
2013-01-01 15:07:00,54.3,53.2,29.91,WNW,286,0.0,1.0,96,0.04,,SKC,1.15,VWS V14.01,2013-01-01 21:07:00,
2013-01-01 15:12:00,54.3,53.2,29.90,WNW,284,0.0,0.0,96,0.05,,SKC,1.16,VWS V14.01,2013-01-01 21:12:00,
2013-01-01 15:17:00,54.3,53.2,29.90,WNW,284,2.0,2.0,96,0.06,,SKC,1.17,VWS V14.01,2013-01-01 21:17:00,
2013-01-01 15:22:00,54.2,53.1,29.91,WNW,286,1.0,2.0,96,0.07,,SKC,1.18,VWS V14.01,2013-01-01 21:22:00,
2013-01-01 15:27:00,54.2,53.1,29.91,WNW,286,0.0,0.0,96,0.06,,SKC,1.18,VWS V14.01,2013-01-01 21:27:00,
2013-01-01 15:32:00,54.3,53.2,29.91,WNW,286,0.0,0.0,96,0.07,,SKC,1.19,VWS V14.01,2013-01-01 21:32:00,
2013-01-01 15:37:00,54.3,53.2,29.91,WNW,286,0.0,0.0,96,0.08,,SKC,1.20,VWS V14.01,2013-01-01 21:37:00,
2013-01-01 15:42:00,54.3,53.2,29.91,WNW,286,0.0,0.0,96,0.08,,SKC,1.21,VWS V14.01,2013-01-01 21:42:00,
2013-01-01 15:47:00,54.3,53.2,29.91,WNW,286,0.0,0.0,96,0.09,,SKC,1.22,VWS V14.01,2013-01-01 21:47:00,
2013-01-01 15:52:00,54.2,53.1,29.91,WNW,286,0.0,0.0,96,0.09,,SKC,1.23,VWS V14.01,2013-01-01 21:52:00,
2013-01-01 15:57:00,54.2,53.1,29.90,WNW,286,0.0,0.0,96,0.10,,SKC,1.24,VWS V14.01,2013-01-01 21:57:00,
2013-01-01 16:02:00,54.2,53.1,29.90,WNW,286,0.0,0.0,96,0.09,,SKC,1.24,VWS V14.01,2013-01-01 22:02:00,
2013-01-01 16:07:00,54.2,53.1,29.90,WNW,286,0.0,1.0,96,0.10,,SKC,1.25,VWS V14.01,2013-01-01 22:07:00,
2013-01-01 16:12:00,54.1,53.0,29.89,WNW,286,0.0,0.0,96,0.09,,SKC,1.25,VWS V14.01,2013-01-01 22:12:00,
2013-01-01 16:17:00,54.1,53.0,29.89,WNW,286,0.0,0.0,96,0.09,,SKC,1.26,VWS V14.01,2013-01-01 22:17:00,
2013-01-01 16:22:00,54.1,53.0,29.90,WNW,286,0.0,0.0,96,0.09,,SKC,1.26,VWS V14.01,2013-01-01 22:22:00,
2013-01-01 16:27:00,54.1,53.0,29.91,WNW,286,0.0,0.0,96,0.09,,SKC,1.27,VWS V14.01,2013-01-01 22:27:00,
2013-01-01 16:32:00,54.0,52.9,29.91,WNW,286,0.0,0.0,96,0.08,,SKC,1.27,VWS V14.01,2013-01-01 22:32:00,
2013-01-01 16:37:00,54.0,52.9,29.91,WNW,286,0.0,0.0,96,0.08,,SKC,1.28,VWS V14.01,2013-01-01 22:37:00,
2013-01-01 16:42:00,54.0,52.9,29.91,WNW,286,0.0,0.0,96,0.09,,SKC,1.30,VWS V14.01,2013-01-01 22:42:00,
2013-01-01 16:47:00,54.0,52.9,29.91,WNW,286,0.0,0.0,96,0.09,,SKC,1.31,VWS V14.01,2013-01-01 22:47:00,
2013-01-01 16:52:00,53.9,52.8,29.91,WNW,286,0.0,0.0,96,0.08,,SKC,1.31,VWS V14.01,2013-01-01 22:52:00,
2013-01-01 16:57:00,53.9,52.8,29.91,WNW,286,0.0,0.0,96,0.08,,SKC,1.32,VWS V14.01,2013-01-01 22:57:00,
2013-01-01 17:02:00,54.0,52.9,29.91,WNW,286,0.0,2.0,96,0.08,,SKC,1.32,VWS V14.01,2013-01-01 23:02:00,
2013-01-01 17:07:00,53.9,52.8,29.91,WNW,286,0.0,0.0,96,0.08,,SKC,1.33,VWS V14.01,2013-01-01 23:07:00,
2013-01-01 17:12:00,53.8,52.7,29.91,NE,39,0.0,0.0,96,0.09,,SKC,1.34,VWS V14.01,2013-01-01 23:12:00,
2013-01-01 17:17:00,53.6,52.5,29.92,WSW,238,2.0,3.0,96,0.08,,SKC,1.34,VWS V14.01,2013-01-01 23:17:00,
2013-01-01 17:22:00,53.5,52.4,29.92,NNE,30,4.0,4.0,96,0.09,,SKC,1.35,VWS V14.01,2013-01-01 23:22:00,
2013-01-01 17:27:00,53.3,52.2,29.92,South,176,0.0,0.0,96,0.08,,SKC,1.35,VWS V14.01,2013-01-01 23:27:00,
2013-01-01 17:32:00,53.1,52.0,29.92,NW,315,0.0,1.0,96,0.09,,SKC,1.36,VWS V14.01,2013-01-01 23:32:00,
2013-01-01 17:37:00,53.0,51.9,29.93,West,259,0.0,0.0,96,0.08,,SKC,1.36,VWS V14.01,2013-01-01 23:37:00,
2013-01-01 17:42:00,53.0,51.9,29.93,West,267,0.0,1.0,96,0.06,,SKC,1.36,VWS V14.01,2013-01-01 23:42:00,
2013-01-01 17:47:00,52.8,51.7,29.93,WSW,243,1.0,2.0,96,0.05,,SKC,1.36,VWS V14.01,2013-01-01 23:47:00,
2013-01-01 17:52:00,52.8,51.7,29.94,SSW,198,0.0,2.0,96,0.05,,SKC,1.36,VWS V14.01,2013-01-01 23:52:00,
2013-01-01 17:57:00,52.7,51.6,29.94,West,259,0.0,0.0,96,0.04,,SKC,1.36,VWS V14.01,2013-01-01 23:57:00,
2013-01-01 18:02:00,52.7,51.6,29.95,West,259,1.0,1.0,96,0.05,,SKC,1.37,VWS V14.01,2013-01-02 00:02:00,
2013-01-01 18:07:00,52.6,51.5,29.95,SE,136,0.0,0.0,96,0.04,,SKC,1.37,VWS V14.01,2013-01-02 00:07:00,
2013-01-01 18:12:00,52.5,51.4,29.95,West,265,0.0,1.0,96,0.04,,SKC,1.38,VWS V14.01,2013-01-02 00:12:00,
2013-01-01 18:17:00,52.5,51.4,29.95,NNW,338,0.0,1.0,96,0.04,,SKC,1.38,VWS V14.01,2013-01-02 00:17:00,
2013-01-01 18:22:00,52.4,51.3,29.95,NW,310,0.0,0.0,96,0.04,,SKC,1.39,VWS V14.01,2013-01-02 00:22:00,
2013-01-01 18:27:00,52.4,51.3,29.96,WNW,300,0.0,0.0,96,0.04,,SKC,1.39,VWS V14.01,2013-01-02 00:27:00,
2013-01-01 18:32:00,52.4,51.3,29.96,WNW,300,0.0,0.0,96,0.04,,SKC,1.40,VWS V14.01,2013-01-02 00:32:00,
2013-01-01 18:37:00,52.4,51.3,29.96,ENE,59,2.0,2.0,96,0.04,,SKC,1.40,VWS V14.01,2013-01-02 00:37:00,
2013-01-01 18:42:00,52.3,51.2,29.96,NNE,25,0.0,0.0,96,0.04,,SKC,1.40,VWS V14.01,2013-01-02 00:42:00,
2013-01-01 18:47:00,52.2,51.1,29.96,North,360,1.0,2.0,96,0.05,,SKC,1.41,VWS V14.01,2013-01-02 00:47:00,
2013-01-01 18:52:00,52.0,50.9,29.96,North,360,2.0,2.0,96,0.05,,SKC,1.41,VWS V14.01,2013-01-02 00:52:00,
2013-01-01 18:57:00,51.8,50.7,29.96,NNW,340,0.0,2.0,96,0.05,,SKC,1.41,VWS V14.01,2013-01-02 00:57:00,
2013-01-01 19:02:00,51.5,50.4,29.96,NNE,23,0.0,4.0,96,0.05,,SKC,1.42,VWS V14.01,2013-01-02 01:02:00,
2013-01-01 19:07:00,51.1,50.0,29.96,NNE,17,3.0,6.0,96,0.05,,SKC,1.42,VWS V14.01,2013-01-02 01:07:00,
2013-01-01 19:12:00,50.9,49.8,29.97,SE,136,2.0,2.0,96,0.04,,SKC,1.42,VWS V14.01,2013-01-02 01:12:00,
2013-01-01 19:17:00,50.7,49.3,29.97,ESE,110,0.0,1.0,95,0.05,,SKC,1.43,VWS V14.01,2013-01-02 01:17:00,
2013-01-01 19:22:00,50.6,49.2,29.97,NNE,24,1.0,1.0,95,0.04,,SKC,1.43,VWS V14.01,2013-01-02 01:22:00,
2013-01-01 19:27:00,50.4,49.3,29.97,NNW,342,0.0,0.0,96,0.05,,SKC,1.44,VWS V14.01,2013-01-02 01:27:00,
2013-01-01 19:32:00,50.3,49.2,29.97,SW,234,0.0,0.0,96,0.05,,SKC,1.45,VWS V14.01,2013-01-02 01:32:00,
2013-01-01 19:37:00,50.2,49.1,29.97,SE,137,0.0,0.0,96,0.06,,SKC,1.46,VWS V14.01,2013-01-02 01:37:00,
2013-01-01 19:42:00,50.1,48.7,29.98,East,82,1.0,1.0,95,0.08,,SKC,1.48,VWS V14.01,2013-01-02 01:42:00,
2013-01-01 19:47:00,50.0,48.6,29.99,NW,321,0.0,0.0,95,0.08,,SKC,1.49,VWS V14.01,2013-01-02 01:47:00,
2013-01-01 19:52:00,49.8,48.4,29.99,NE,56,1.0,2.0,95,0.11,,SKC,1.52,VWS V14.01,2013-01-02 01:52:00,
2013-01-01 19:57:00,49.6,48.2,29.99,North,360,0.0,0.0,95,0.12,,SKC,1.53,VWS V14.01,2013-01-02 01:57:00,
2013-01-01 20:02:00,49.5,48.1,29.98,ENE,60,0.0,1.0,95,0.12,,SKC,1.54,VWS V14.01,2013-01-02 02:02:00,
2013-01-01 20:07:00,49.4,48.0,29.99,East,100,0.0,1.0,95,0.13,,SKC,1.55,VWS V14.01,2013-01-02 02:07:00,
2013-01-01 20:12:00,49.4,48.0,30.00,North,355,0.0,0.0,95,0.14,,SKC,1.56,VWS V14.01,2013-01-02 02:12:00,
2013-01-01 20:17:00,49.3,47.9,30.00,WNW,294,0.0,0.0,95,0.14,,SKC,1.56,VWS V14.01,2013-01-02 02:17:00,
2013-01-01 20:22:00,49.2,47.8,29.99,ENE,63,0.0,0.0,95,0.14,,SKC,1.57,VWS V14.01,2013-01-02 02:22:00,
2013-01-01 20:27:00,49.2,47.8,30.00,WNW,303,2.0,2.0,95,0.14,,SKC,1.58,VWS V14.01,2013-01-02 02:27:00,
2013-01-01 20:32:00,49.1,47.7,30.00,West,261,0.0,0.0,95,0.13,,SKC,1.58,VWS V14.01,2013-01-02 02:32:00,
2013-01-01 20:37:00,49.0,47.6,30.00,SW,234,0.0,1.0,95,0.13,,SKC,1.59,VWS V14.01,2013-01-02 02:37:00,
2013-01-01 20:42:00,49.0,47.6,30.00,East,94,1.0,1.0,95,0.12,,SKC,1.60,VWS V14.01,2013-01-02 02:42:00,
2013-01-01 20:47:00,48.9,47.5,30.00,ENE,57,1.0,2.0,95,0.12,,SKC,1.61,VWS V14.01,2013-01-02 02:47:00,
2013-01-01 20:52:00,48.8,47.4,29.99,East,87,0.0,0.0,95,0.10,,SKC,1.62,VWS V14.01,2013-01-02 02:52:00,
2013-01-01 20:57:00,48.8,47.4,29.99,East,86,0.0,0.0,95,0.12,,SKC,1.65,VWS V14.01,2013-01-02 02:57:00,
2013-01-01 21:02:00,48.7,47.3,29.98,East,83,2.0,2.0,95,0.11,,SKC,1.65,VWS V14.01,2013-01-02 03:02:00,
2013-01-01 21:07:00,48.7,47.3,29.98,East,83,0.0,0.0,95,0.11,,SKC,1.66,VWS V14.01,2013-01-02 03:07:00,
2013-01-01 21:12:00,48.7,47.3,29.98,ENE,67,0.0,0.0,95,0.11,,SKC,1.67,VWS V14.01,2013-01-02 03:12:00,
2013-01-01 21:17:00,48.7,47.3,29.98,ENE,67,0.0,0.0,95,0.11,,SKC,1.67,VWS V14.01,2013-01-02 03:17:00,
2013-01-01 21:22:00,48.6,47.2,29.98,ENE,67,0.0,0.0,95,0.11,,SKC,1.68,VWS V14.01,2013-01-02 03:22:00,
2013-01-01 21:27:00,48.7,47.3,29.98,ENE,67,0.0,0.0,95,0.11,,SKC,1.69,VWS V14.01,2013-01-02 03:27:00,
2013-01-01 21:32:00,48.7,47.3,29.99,ENE,67,0.0,0.0,95,0.12,,SKC,1.70,VWS V14.01,2013-01-02 03:32:00,
2013-01-01 21:37:00,48.7,47.3,29.98,ENE,67,0.0,0.0,95,0.11,,SKC,1.70,VWS V14.01,2013-01-02 03:37:00,
2013-01-01 21:42:00,48.6,47.5,29.99,West,261,0.0,3.0,96,0.11,,SKC,1.71,VWS V14.01,2013-01-02 03:42:00,
2013-01-01 21:47:00,48.6,47.5,29.99,West,262,0.0,0.0,96,0.11,,SKC,1.72,VWS V14.01,2013-01-02 03:47:00,
2013-01-01 21:52:00,48.6,47.5,30.00,West,262,0.0,0.0,96,0.10,,SKC,1.72,VWS V14.01,2013-01-02 03:52:00,
2013-01-01 21:57:00,48.6,47.5,29.99,NNW,337,0.0,0.0,96,0.09,,SKC,1.73,VWS V14.01,2013-01-02 03:57:00,
2013-01-01 22:02:00,48.5,47.4,29.99,NNW,338,0.0,0.0,96,0.08,,SKC,1.74,VWS V14.01,2013-01-02 04:02:00,
2013-01-01 22:07:00,48.5,47.4,29.99,NNW,337,0.0,0.0,96,0.08,,SKC,1.74,VWS V14.01,2013-01-02 04:07:00,
2013-01-01 22:12:00,48.5,47.4,29.99,NNW,338,0.0,0.0,96,0.07,,SKC,1.74,VWS V14.01,2013-01-02 04:12:00,
2013-01-01 22:17:00,48.5,47.4,29.99,NNW,338,0.0,0.0,96,0.07,,SKC,1.74,VWS V14.01,2013-01-02 04:17:00,
2013-01-01 22:22:00,48.5,47.4,29.99,NNW,338,0.0,0.0,96,0.06,,SKC,1.74,VWS V14.01,2013-01-02 04:22:00,
2013-01-01 22:27:00,48.5,47.4,30.00,NNW,337,0.0,0.0,96,0.05,,SKC,1.74,VWS V14.01,2013-01-02 04:27:00,
2013-01-01 22:32:00,48.4,47.3,30.00,NNW,337,0.0,0.0,96,0.05,,SKC,1.74,VWS V14.01,2013-01-02 04:32:00,
2013-01-01 22:37:00,48.4,47.3,30.00,NNE,23,0.0,0.0,96,0.04,,SKC,1.74,VWS V14.01,2013-01-02 04:37:00,
2013-01-01 22:42:00,48.3,47.2,30.00,SW,217,2.0,2.0,96,0.03,,SKC,1.74,VWS V14.01,2013-01-02 04:42:00,
2013-01-01 22:47:00,48.3,47.2,30.01,WSW,241,0.0,0.0,96,0.02,,SKC,1.74,VWS V14.01,2013-01-02 04:47:00,
2013-01-01 22:52:00,48.2,47.1,30.01,SW,233,0.0,0.0,96,0.02,,SKC,1.74,VWS V14.01,2013-01-02 04:52:00,
2013-01-01 22:57:00,48.1,47.0,30.01,WNW,287,0.0,0.0,96,0.01,,SKC,1.74,VWS V14.01,2013-01-02 04:57:00,
2013-01-01 23:00:00,48.1,47.0,30.01,WNW,294,1.0,2.0,96,0.01,,SKC,1.74,VWS V14.01,2013-01-02 05:00:00,
2013-01-01 23:01:00,48.0,46.9,30.01,NW,314,3.0,5.0,96,0.01,,SKC,1.74,VWS V14.01,2013-01-02 05:01:00,
2013-01-01 23:06:00,47.9,46.8,30.01,WNW,301,2.0,3.0,96,0.00,,SKC,1.74,VWS V14.01,2013-01-02 05:06:00,
2013-01-01 23:11:00,47.8,46.4,30.01,SW,229,0.0,1.0,95,0.00,,SKC,1.74,VWS V14.01,2013-01-02 05:11:00,
2013-01-01 23:16:00,47.6,46.2,30.01,ENE,68,0.0,3.0,95,0.00,,SKC,1.74,VWS V14.01,2013-01-02 05:16:00,
2013-01-01 23:21:00,47.5,46.1,30.00,North,355,0.0,2.0,95,0.00,,SKC,1.74,VWS V14.01,2013-01-02 05:21:00,
2013-01-01 23:26:00,47.4,46.0,30.01,WNW,296,3.0,3.0,95,0.00,,SKC,1.74,VWS V14.01,2013-01-02 05:26:00,
2013-01-01 23:31:00,47.2,45.8,30.02,West,280,4.0,5.0,95,0.00,,SKC,1.74,VWS V14.01,2013-01-02 05:31:00,
2013-01-01 23:36:00,46.8,45.5,30.02,NW,309,1.0,1.0,95,0.00,,SKC,1.74,VWS V14.01,2013-01-02 05:36:00,
2013-01-01 23:41:00,46.5,45.2,30.02,SE,126,3.0,7.0,95,0.00,,SKC,1.74,VWS V14.01,2013-01-02 05:41:00,
2013-01-01 23:46:00,46.4,45.0,30.02,West,259,4.0,4.0,95,0.00,,SKC,1.74,VWS V14.01,2013-01-02 05:46:00,
2013-01-01 23:51:00,46.3,45.0,30.02,East,101,0.0,0.0,95,0.00,,SKC,1.74,VWS V14.01,2013-01-02 05:51:00,
2013-01-01 23:56:00,46.1,44.8,30.02,NW,326,0.0,5.0,95,0.00,,SKC,1.74,VWS V14.01,2013-01-02 05:56:00,